sat.trackr.live / text

‹ back to catalog

ONEWEB-0193

NORAD 48238 · 2021-031AE

PAYLOAD ACTIVE UNKNOWN

§ Identity

Operator
Country
UK
Launch date
2021-04-25
Launch site
VOSTO
Launch vehicle
Mass (kg)
RCS (m²)

Purposes: comms

External: N2YO · Heavens-Above · Gunter

§ Orbital elements

Epoch: 2026-09-18T18:29:42.157248Z

Period
109.55 min
Inclination
87.8905°
Eccentricity
0.0002233
Mean motion
13.14502321 rev/d
Perigee alt
1,204.1 km
Apogee alt
1,207.5 km
Semi-major
7,583.9 km
B*
1.1242e-4
RAAN
271.0368°
Arg perigee
84.6792°
Mean anomaly
275.4593°
Rev number
26,060

§ Raw data

ONEWEB-01931 48238U 21031AE  26261.77062682  .00000054  00000+0  11242-3 0  99982 48238  87.8905 271.0368 0002233  84.6792 275.4593 13.14502321260608

JSON: /api/v1/satellites/48238 · /tle

For live sub-satellite position, see the globe view (requires WebGL).

§ Visibility from observer

Set your observer location to see the next 7 days of passes ≥ 10°. The values pass through the URL so the page stays shareable.

No JS? Fill the form by hand. The geolocation button needs JavaScript.